EW8409 Weather Reports


Display with metric or nautical units.
time (UTC)temp
F
wind
direction
speed
MPH
gust
MPH
rain 1hr
in
rain 24hr
in
rain mn
in
humidity
%
barometer
mb
20260509164522 64 154 0.0 1.0 0.00 0.00 0.00 60 1005.6
20260509163031 63 150 0.0 0.0 0.00 0.00 0.00 65 1005.8
20260509161515 62 125 0.0 0.0 0.00 0.00 0.00 65 1006.2
20260509160013 62 152 0.0 0.0 0.00 0.00 0.00 64 1006.3
20260509154510 61 58 0.0 0.0 0.00 0.00 0.00 64 1006.4
20260509153010 61 203 0.0 0.0 0.00 0.00 0.00 66 1006.4
20260509151504 60 224 0.0 1.0 0.00 0.00 0.00 70 1006.6
20260509150101 59 219 0.0 0.0 0.00 0.00 0.00 70 1006.7
20260509144556 59 222 0.0 0.0 0.00 0.00 0.00 72 1006.8
20260509143054 58 201 0.0 0.0 0.00 0.00 0.00 73 1007.0
20260509141550 57 192 0.0 0.0 0.00 0.00 0.00 75 1007.0
20260509140045 56 85 0.0 0.0 0.00 0.00 0.00 75 1007.2
20260509134541 54 122 0.0 0.0 0.00 0.00 0.00 77 1007.4
20260509133037 53 45 0.0 0.0 0.00 0.00 0.00 78 1007.7
20260509131534 51 160 0.0 0.0 0.00 0.00 0.00 79 1007.8
20260509130037 50 235 0.0 0.0 0.00 0.00 0.00 80 1007.9
20260509124525 48 127 0.0 0.0 0.00 0.06 0.00 81 1008.1
20260509123021 47 132 0.0 0.0 0.00 0.06 0.00 82 1008.0
20260509121524 45 285 0.0 0.0 0.00 0.06 0.00 85 1008.1
20260509120013 43 281 0.0 0.0 0.00 0.06 0.00 89 1008.2
20260509114508 42 281 0.0 0.0 0.00 0.06 0.00 91 1008.2
20260509113005 41 281 0.0 0.0 0.00 0.06 0.00 91 1008.2
20260509111504 40 281 0.0 0.0 0.00 0.06 0.00 92 1008.2
20260509110002 39 281 0.0 0.0 0.00 0.06 0.00 92 1008.2
20260509104508 38 281 0.0 0.0 0.00 0.06 0.00 92 1008.2
20260509103001 38 281 0.0 0.0 0.00 0.06 0.00 92 1008.1
20260509101504 38 281 0.0 0.0 0.00 0.06 0.00 91 1008.1
20260509100106 37 281 0.0 0.0 0.00 0.06 0.00 91 1008.1
20260509094609 37 281 0.0 0.0 0.00 0.06 0.00 91 1008.1
20260509093059 38 281 0.0 0.0 0.00 0.06 0.00 91 1008.1
20260509091606 38 281 0.0 0.0 0.00 0.06 0.00 91 1008.2
20260509090105 38 281 0.0 0.0 0.00 0.06 0.00 91 1008.3
20260509084601 38 282 0.0 0.0 0.00 0.06 0.00 91 1008.3
20260509083101 38 282 0.0 0.0 0.00 0.06 0.00 91 1008.4
20260509081552 38 282 0.0 0.0 0.00 0.06 0.00 91 1008.6
20260509080054 38 282 0.0 0.0 0.00 0.06 0.00 90 1008.7
20260509074553 38 282 0.0 0.0 0.00 0.06 0.00 90 1008.7
20260509073051 38 281 0.0 0.0 0.00 0.06 0.00 90 1008.9
20260509071547 38 282 0.0 0.0 0.00 0.06 0.00 90 1009.0
20260509070044 38 282 0.0 0.0 0.00 0.06 0.00 91 1009.1
20260509064542 38 309 0.0 0.0 0.00 0.06 0.00 90 1009.2
20260509063039 38 309 0.0 0.0 0.00 0.06 0.00 90 1009.5
20260509061537 38 331 0.0 0.0 0.00 0.06 0.00 90 1009.6
20260509060040 38 331 0.0 0.0 0.00 0.06 0.00 89 1009.8
20260509054533 39 331 0.0 0.0 0.00 0.06 0.00 89 1009.8
20260509053041 39 331 0.0 0.0 0.00 0.06 0.00 90 1010.0
20260509051528 39 331 0.0 0.0 0.00 0.06 0.00 90 1010.1
20260509050026 39 331 0.0 0.0 0.00 0.06 0.00 90 1010.2
20260509044525 39 331 0.0 0.0 0.00 0.07 0.00 89 1010.3
20260509043023 40 339 0.0 0.0 0.00 0.07 0.00 89 1010.5
20260509041521 40 339 0.0 0.0 0.00 0.07 0.00 88 1010.6
20260509040027 41 339 0.0 0.0 0.00 0.07 0.00 86 1010.7
20260509034518 41 339 0.0 0.0 0.00 0.07 0.07 86 1010.7
20260509033017 41 339 0.0 0.0 0.00 0.07 0.07 85 1010.7
20260509031517 42 339 0.0 0.0 0.00 0.07 0.07 85 1010.8
20260509030031 42 339 0.0 0.0 0.00 0.07 0.07 83 1010.8
20260509024516 42 339 0.0 0.0 0.00 0.07 0.07 83 1010.9
20260509023015 43 340 0.0 0.0 0.00 0.07 0.07 80 1010.9
20260509021514 43 340 0.0 0.0 0.00 0.07 0.07 80 1010.8
20260509020013 44 340 0.0 0.0 0.00 0.07 0.07 78 1010.8
20260509014513 44 340 0.0 0.0 0.00 0.07 0.07 75 1010.8
20260509013012 45 340 0.0 0.0 0.00 0.07 0.07 74 1010.8
20260509011611 46 340 0.0 0.0 0.00 0.07 0.07 73 1010.7
20260509010010 47 340 0.0 0.0 0.00 0.07 0.07 71 1010.5
20260509004513 48 340 0.0 0.0 0.00 0.07 0.07 68 1010.2
20260509003012 49 340 0.0 0.0 0.00 0.07 0.07 64 1010.0
20260509001512 50 340 0.0 0.0 0.00 0.07 0.07 62 1010.0
20260509000008 51 340 0.0 0.0 0.00 0.07 0.07 61 1009.9
20260508234512 52 340 0.0 0.0 0.00 0.07 0.07 58 1009.9
20260508233008 53 340 0.0 0.0 0.00 0.07 0.07 54 1009.7
20260508231507 53 340 0.0 0.0 0.00 0.07 0.07 53 1009.7
20260508230005 54 6 0.0 0.0 0.00 0.07 0.07 50 1009.8
20260508224505 54 8 0.0 0.0 0.00 0.07 0.07 48 1009.8
20260508223005 55 295 0.0 0.0 0.00 0.07 0.07 47 1009.8
20260508221504 55 30 0.0 0.0 0.00 0.07 0.07 48 1009.8
20260508220003 55 64 0.0 0.0 0.00 0.07 0.07 45 1009.8
20260508214503 55 6 0.0 0.0 0.00 0.07 0.07 44 1009.9
20260508213006 55 320 0.0 0.0 0.00 0.07 0.07 45 1010.0
20260508211500 56 341 0.0 0.0 0.00 0.07 0.07 46 1010.1
20260508210000 55 65 0.0 0.0 0.00 0.07 0.07 47 1010.1
20260508204558 54 56 0.0 0.0 0.00 0.07 0.07 49 1010.2
20260508203107 54 23 0.0 0.0 0.00 0.07 0.07 50 1010.5
20260508201602 54 47 0.0 0.0 0.00 0.07 0.07 52 1010.6
20260508200053 55 27 0.0 1.0 0.00 0.07 0.07 42 1010.6
20260508194553 56 165 0.0 1.0 0.00 0.07 0.07 43 1010.6
20260508193052 55 39 0.0 1.0 0.00 0.07 0.07 43 1010.9
20260508191551 57 206 0.0 0.0 0.00 0.07 0.07 40 1011.1
20260508190049 56 52 0.0 0.0 0.00 0.07 0.07 42 1011.1
20260508184549 57 230 0.0 0.0 0.00 0.07 0.07 44 1011.2
20260508183047 57 139 0.0 1.0 0.00 0.07 0.07 42 1011.3
20260508181544 55 260 0.0 1.0 0.00 0.07 0.07 51 1011.3
20260508180042 55 160 0.0 0.0 0.00 0.07 0.07 54 1011.4
20260508174546 56 158 0.0 0.0 0.00 0.07 0.07 51 1011.7
20260508173038 55 168 0.0 1.0 0.00 0.07 0.07 54 1011.7
20260508171534 54 214 0.0 1.0 0.00 0.07 0.07 54 1011.9
20260508170030 52 210 0.0 0.0 0.00 0.07 0.07 58 1012.0